GSAT0217 (GALILEO 21) (43057 NORAD) Tracking and Keplerian Element Data

This shows tracking and keplerian element data for the satellite.

Feedback or suggestion? Click here.




ElementValue
Catalog43057
NameGSAT0217 (GALILEO 21)
Epoch Orbit2356
Epoch Day268.21324339
Epoch Year2021
RAAN269.0242
Inclination55.9266
Eccentricity0.0005631
Argument of Perigee282.9726
Mean Anonmoly76.9631
Mean Motion1.70474208
Decay Rate1.4E-07
L11 43057U 17079C 21268.21324339 .00000014 00000-0 00000-0 0 9994
L22 43057 55.9266 269.0242 0005631 282.9726 76.9631 1.70474208 23561

Live tracking and technical data element details for GSAT0217 (GALILEO 21) (NORAD 43057). GSAT0217 (GALILEO 21) can be tracked NOW for your location showing map with azimuth and elevation plus other details from your city location.

Track the satellite on the map from your city or location and see movement details for azimuth, elevation, latitude, longitude, range, height, and movement on the map or in text.







IsCatalogInMostPopularTable: catalog: 43057, numindb: 619
Update: records affected: 1



GetName: 43057 GSAT0217 (GALILEO 21)

Hit Count: updated at: Tue, 28 Sep 2021 16:50:09 GMT